#timestamp,LO_Frequency,Hit,StdDev 
1568955615.8,286046996.2,Y
1568955635.7,286046998.3,P
1568955655.5,286046998.7,N
1568955675.3,286046998.6,N
1568955695.2,286046999.3,N
1568955715.0,286046998.4,N
1568955715.9,286046998.4,N
1568955735.8,286047000.7,N
1568955755.6,286046998.3,N
1568955775.4,286046998.2,N
1568955795.3,286047000.8,N
1568955815.1,286047000.8,N
1568955835.9,286046999.0,N
1568955855.7,286046997.2,N
1568955875.5,286046997.6,N
1568955895.4,286046997.4,N
1568955915.2,286046997.8,N
1568955935.0,286046995.3,Y
1568955936.0,286046995.3,P
1568955955.8,286046998.0,N
1568955975.6,286046997.9,N
1568955995.5,286046997.4,N
1568956015.3,286046995.7,Y
1568956035.1,286046996.5,P
1568956055.9,286046998.6,P
1568956075.7,286047001.0,N
1568956095.6,286047001.2,N
1568956115.4,286047000.6,N
1568956135.2,286047002.7,N
1568956155.1,286047002.8,N
1568956156.0,286047002.8,N
1568956175.8,286047000.5,N
1568956195.6,286047000.3,N
1568956215.5,286047000.6,N
1568956235.3,286047000.7,N
1568956255.2,286047000.5,N
1568956275.0,286047000.2,N
1568956275.9,286047000.2,N
1568956295.7,286047000.3,N
1568956315.6,286047000.1,N
1568956335.4,286047001.7,N
1568956355.3,286047002.5,N
1568956375.1,286047001.8,N
1568956376.0,286047001.8,N
1568956395.8,286047003.6,N
1568956415.7,286047005.9,Y
1568956435.5,286047004.0,P
1568956455.4,286047001.5,N
1568956475.2,286047001.4,N
1568956495.0,286047001.5,N
1568956495.9,286047001.5,N
1568956515.8,286047002.8,N
1568956535.6,286047002.2,N
1568956555.4,286047003.2,Y
1568956575.3,286047001.4,P
1568956595.1,286047001.9,P
1568956615.9,286047002.4,P
1568956635.7,286047002.7,Y
1568956655.5,286046999.0,P
1568956675.4,286046999.0,N
1568956725.2,286047000.3,E
1568956735.2,286047000.6,N
1568956755.0,286047002.4,P
1568956755.9,286047002.4,N
1568956775.7,286047000.8,N
1568956795.6,286046998.4,N
1568956815.4,286046997.1,N
1568956835.3,286046996.8,N
1568956855.1,286046999.4,N
1568956856.0,286046999.4,N
1568956875.8,286046999.4,N
1568956895.7,286046999.0,N
1568956915.5,286046998.1,N
1568956935.3,286047001.0,N
1568956955.2,286046998.1,N
1568956975.0,286046998.1,N
1568956975.9,286046998.1,N
1568956995.8,286046998.7,N
1568957015.6,286046999.2,N
1568957035.4,286046998.7,N
1568957055.3,286046998.5,N
1568957075.1,286047000.8,N
1568957095.9,286047000.0,N
1568957115.7,286047001.0,N
1568957135.5,286046996.6,N
1568957155.4,286046997.9,N
1568957175.2,286046997.0,N
1568957195.0,286046997.5,N
1568957195.9,286046997.5,N
1568957215.8,286046995.1,Y
1568957235.6,286046999.6,P
1568957255.5,286046996.5,P
1568957275.3,286046999.4,N
1568957295.1,286046998.1,N
1568957315.9,286047000.7,N
1568957335.7,286047001.1,N
1568957355.6,286047000.4,N
1568957375.4,286047000.0,N
1568957395.2,286047001.1,N
1568957415.1,286047000.0,N
1568957416.0,286047000.0,N
1568957435.8,286047000.1,N
1568957455.7,286047000.1,N
1568957475.5,286047000.0,N
1568957495.3,286046999.9,N
1568957515.2,286047000.3,N
1568957535.0,286046998.4,N
1568957535.9,286046998.4,N
1568957555.8,286046998.2,N
1568957575.6,286046999.8,N
1568957595.4,286047002.7,N
1568957615.3,286046999.8,N
1568957635.1,286047000.2,N
1568957655.8,286046998.2,N
1568957675.7,286046998.5,N
1568957695.5,286047001.0,N
1568957715.4,286047001.2,N
1568957735.2,286046999.7,N
1568957755.0,286047001.2,N
1568957755.9,286047001.2,N
1568957775.8,286047001.2,N
1568957795.6,286047001.0,N
1568957815.4,286046998.5,N
1568957835.3,286047002.8,N
1568957855.1,286047001.4,N
1568957875.9,286047002.0,N
1568957895.7,286046999.7,N
1568957915.5,286047001.6,N
1568957935.4,286047002.0,N
1568957955.2,286047005.6,Y
1568957975.1,286047001.8,P
1568957976.0,286047001.8,N
1568957995.8,286047000.0,N
1568958015.6,286047000.1,N
1568958035.5,286047000.0,N
1568958055.3,286047000.8,N
1568958075.2,286046998.3,N
1568958095.9,286047001.1,N
1568958115.7,286046998.3,N
1568958135.6,286046998.3,N
1568958155.4,286047000.8,N
1568958175.2,286046998.4,N
1568958195.1,286047000.1,N
1568958196.0,286047000.1,N
1568958215.8,286047000.0,N
1568958235.7,286046999.9,N
1568958255.5,286047002.5,N
1568958275.3,286047001.5,N
1568958295.2,286047004.3,Y
1568958315.0,286047001.5,P
1568958315.9,286047001.5,N
1568958335.8,286047002.7,P
1568958355.6,286047002.6,N
1568958375.4,286046999.9,N
1568958395.3,286047000.4,N
1568958415.1,286047000.2,N
1568958435.9,286047002.6,N
1568958455.7,286047002.6,N
1568958475.5,286047001.5,N
1568958495.4,286047003.8,Y
1568958515.2,286047004.0,P
1568958535.1,286047003.7,N
1568958536.0,286047003.7,P
1568958555.8,286047004.1,Y
1568958575.6,286046998.8,P
1568958595.5,286046998.9,N
1568958615.3,286046999.1,N
1568958635.2,286046999.0,N
1568958655.9,286046999.3,N
1568958675.7,286046999.1,N
1568958695.6,286046996.6,N
1568958715.4,286046999.1,N
1568958735.2,286046997.0,N
1568958755.1,286046997.2,N
1568958756.0,286046997.2,N
1568958775.8,286046996.9,N
1568958795.7,286046998.8,N
1568958815.5,286046999.2,N
1568958835.4,286046998.4,N
1568958855.2,286046998.6,N
1568958875.0,286046997.0,N
1568958875.9,286046997.0,N
1568958895.8,286046997.3,N
1568958915.6,286046997.5,N
1568958935.5,286046997.2,N
1568958955.3,286046998.2,N
1568958975.1,286046998.8,N
1568958995.9,286047001.1,N
1568959015.7,286046998.2,N
1568959035.5,286046998.5,N
1568959055.4,286047000.9,N
1568959075.2,286046998.2,N
1568959095.1,286046999.5,N
1568959096.0,286046999.5,N
1568959115.8,286046999.2,N
1568959135.7,286046999.2,N
1568959155.5,286046996.7,N
1568959175.3,286046998.7,N
1568959195.2,286046998.1,N
